Weather History for Wahoo, NE

Change the Weather History Date:

Sunday, July 15, 2012

  Actual Average Record
Temperature  
Mean Temperature 82 °F -  
Max Temperature 98 °F 89 °F 102 °F (1988)
Min Temperature 67 °F 64 °F 51 °F (1967)
Cooling Degree Days 18    
Growing Degree Days 32 (Base 50)    
Moisture  
Dew Point 66 °F    
Average Humidity 64    
Maximum Humidity 92    
Minimum Humidity 31    
Precipitation  
Precipitation 0.00 in - - ()
Sea Level Pressure  
Sea Level Pressure 29.98 in    
Wind  
Wind Speed 4 mph (SE)    
Max Wind Speed 13 mph    
Max Gust Speed 18 mph    
Visibility 10 miles    
Events      
Averages and records for this station are not official NWS values.
T = Trace of Precipitation, MM = Missing Value Source: NWS Daily Summary

Daily Weather History Graph

Daily Weather History Graph

Search for Another Location

Airport:

Trip Planner

Search our weather history database for the weather conditions in past years. The results will help you decide how hot, cold, wet, or windy it might be!

Date:

Astronomy

Jul. 15, 2012 Rise Set
Actual Time 6:06 AM CDT 8:57 PM CDT
Civil Twilight 5:34 AM CDT 9:30 PM CDT
Nautical Twilight 4:52 AM CDT 10:11 PM CDT
Astronomical Twilight 4:05 AM CDT 10:58 PM CDT
Moon 3:04 AM CDT (7/15) 6:15 PM CDT (7/15)
Length of Visible Light 15h 55m
Length of Day
14h 50m
Waning Crescent, 11% of the Moon is Illuminated
Jul 15
Waning Crescent
Jul 18
New
Jul 26
First Quarter
Aug 1
Full
Aug 9
Last Quarter

Hourly Weather History & Observations

Time (CDT) Temp. Heat Index Dew Point Humidity Pressure Visibility Wind Dir Wind Speed Gust Speed Precip Events Conditions
12:15 AM 73.9 °F - 68.0 °F 82% 30.02 in 10.0 mi Calm Calm - N/A   Clear
12:35 AM 72.7 °F - 67.8 °F 85% 30.02 in 10.0 mi SSE 3.5 mph - N/A   Clear
12:55 AM 72.5 °F - 68.0 °F 86% 30.02 in 10.0 mi ESE 4.6 mph - N/A   Clear
1:15 AM 72.1 °F - 67.5 °F 85% 30.02 in 10.0 mi SE 3.5 mph - N/A   Clear
1:55 AM 71.2 °F - 67.5 °F 88% 30.02 in 10.0 mi Calm Calm - N/A   Clear
2:15 AM 70.7 °F - 67.1 °F 88% 30.01 in 10.0 mi Calm Calm - N/A   Clear
2:35 AM 70.2 °F - 66.6 °F 88% 30.01 in 10.0 mi Calm Calm - N/A   Clear
2:55 AM 70.2 °F - 66.6 °F 88% 30.00 in 10.0 mi Calm Calm - N/A   Clear
3:15 AM 69.3 °F - 65.8 °F 89% 30.00 in 10.0 mi Calm Calm - N/A   Clear
3:35 AM 68.0 °F - 65.1 °F 90% 30.00 in 10.0 mi Calm Calm - N/A   Clear
3:55 AM 68.2 °F - 65.7 °F 92% 30.00 in 10.0 mi Calm Calm - N/A   Clear
4:15 AM 67.5 °F - 64.8 °F 91% 30.00 in 10.0 mi East 3.5 mph - N/A   Clear
4:35 AM 67.5 °F - 64.4 °F 90% 30.00 in 10.0 mi Calm Calm - N/A   Clear
4:55 AM 68.4 °F - 65.1 °F 89% 30.00 in 10.0 mi ESE 3.5 mph - N/A   Clear
5:15 AM 68.0 °F - 65.3 °F 91% 30.00 in 10.0 mi East 5.8 mph - N/A   Clear
5:35 AM 67.5 °F - 64.9 °F 92% 30.00 in 7.0 mi East 4.6 mph - N/A   Clear
5:55 AM 68.0 °F - 65.3 °F 91% 30.00 in 7.0 mi East 4.6 mph - N/A   Clear
6:15 AM 67.6 °F - 64.8 °F 90% 30.00 in 7.0 mi SE 3.5 mph - N/A   Clear
6:35 AM 68.2 °F - 64.9 °F 89% 30.01 in 7.0 mi Calm Calm - N/A   Clear
6:55 AM 68.9 °F - 65.7 °F 89% 30.00 in 7.0 mi Calm Calm - N/A   Clear
7:15 AM 70.5 °F - 66.6 °F 87% 30.01 in 7.0 mi Calm Calm - N/A   Clear
7:35 AM 72.1 °F - 68.0 °F 87% 30.02 in 10.0 mi SE 3.5 mph - N/A   Clear
7:55 AM 74.3 °F - 68.0 °F 81% 30.02 in 10.0 mi SE 3.5 mph - N/A   Clear
8:15 AM 75.6 °F - 68.5 °F 79% 30.02 in 10.0 mi SE 4.6 mph - N/A   Clear
8:35 AM 77.2 °F - 67.1 °F 71% 30.02 in 10.0 mi SE 4.6 mph - N/A   Clear
8:55 AM 78.1 °F - 67.1 °F 69% 30.02 in 10.0 mi SE 4.6 mph - N/A   Clear
9:15 AM 79.2 °F - 66.7 °F 66% 30.02 in 10.0 mi SE 4.6 mph - N/A   Clear
9:35 AM 80.6 °F 83.2 °F 67.6 °F 65% 30.02 in 10.0 mi SE 4.6 mph - N/A   Clear
9:55 AM 81.7 °F 84.2 °F 67.3 °F 61% 30.02 in 10.0 mi ESE 6.9 mph - N/A   Clear
10:15 AM 83.3 °F 86.2 °F 67.5 °F 59% 30.02 in 10.0 mi ESE 5.8 mph - N/A   Clear
10:35 AM 83.8 °F 86.7 °F 67.8 °F 58% 30.02 in 10.0 mi SE 6.9 mph - N/A   Clear
10:55 AM 86.0 °F 89.4 °F 68.4 °F 55% 30.01 in 10.0 mi SE 9.2 mph - N/A   Clear
11:15 AM 87.3 °F 91.6 °F 69.4 °F 55% 30.01 in 10.0 mi ESE 9.2 mph - N/A   Clear
11:35 AM 89.1 °F 93.7 °F 69.4 °F 52% 30.01 in 10.0 mi SE 8.1 mph - N/A   Clear
11:55 AM 90.0 °F 94.5 °F 68.9 °F 50% 30.00 in 10.0 mi SSE 8.1 mph - N/A   Clear
12:15 PM 91.6 °F 96.7 °F 69.6 °F 48% 30.00 in 10.0 mi SE 9.2 mph - N/A   Clear
12:35 PM 92.8 °F 98.1 °F 69.3 °F 46% 30.00 in 10.0 mi SSE 10.4 mph - N/A   Clear
12:55 PM 93.6 °F 97.9 °F 68.0 °F 43% 29.99 in 10.0 mi SE 9.2 mph 16.1 mph N/A   Clear
1:15 PM 95.5 °F 99.4 °F 67.3 °F 39% 29.99 in 10.0 mi SSE 10.4 mph 17.3 mph N/A   Clear
1:35 PM 95.9 °F 98.0 °F 64.6 °F 35% 29.98 in 10.0 mi SSE 11.5 mph - N/A   Clear
1:55 PM 96.6 °F 99.2 °F 65.1 °F 35% 29.97 in 10.0 mi South 12.7 mph 16.1 mph N/A   Clear
2:15 PM 96.4 °F 98.4 °F 64.2 °F 34% 29.97 in 10.0 mi North - - N/A   Clear
2:35 PM 95.4 °F 97.1 °F 63.3 °F 35% 29.96 in 10.0 mi North - - N/A   Clear
2:55 PM 96.1 °F 97.8 °F 63.9 °F 34% 29.96 in 10.0 mi SSE 5.8 mph - N/A   Clear
3:15 PM 97.7 °F 100.0 °F 63.7 °F 33% 29.95 in 10.0 mi South 12.7 mph - N/A   Clear
3:35 PM 97.7 °F 99.5 °F 62.8 °F 32% 29.95 in 10.0 mi South 12.7 mph 18.4 mph N/A   Clear
3:55 PM 97.7 °F 99.5 °F 63.5 °F 32% 29.94 in 10.0 mi SSE 9.2 mph - N/A   Clear
4:15 PM 97.7 °F 99.0 °F 62.6 °F 31% 29.94 in 10.0 mi SSE 9.2 mph 18.4 mph N/A   Clear
4:35 PM 98.1 °F 100.1 °F 63.5 °F 32% 29.93 in 10.0 mi SSE 11.5 mph 17.3 mph N/A   Clear
4:55 PM 96.8 °F 98.5 °F 63.0 °F 33% 29.93 in 10.0 mi SSE 12.7 mph 17.3 mph N/A   Clear
5:15 PM 96.4 °F 97.9 °F 63.3 °F 33% 29.92 in 10.0 mi SSE 10.4 mph - N/A   Clear
6:55 PM 93.2 °F 94.9 °F 64.0 °F 38% 29.91 in 10.0 mi SE 11.5 mph - N/A   Clear
7:15 PM 92.1 °F 95.3 °F 66.4 °F 43% 29.91 in 10.0 mi SE 8.1 mph - N/A   Clear
7:35 PM 90.9 °F 93.1 °F 65.5 °F 43% 29.91 in 10.0 mi SE 8.1 mph - N/A   Clear
8:15 PM 87.1 °F 89.5 °F 66.4 °F 50% 29.91 in 10.0 mi SE 8.1 mph - N/A   Clear
8:35 PM 85.1 °F 87.9 °F 67.1 °F 55% 29.92 in 10.0 mi SE 6.9 mph - N/A   Clear
8:55 PM 83.8 °F 86.5 °F 67.3 °F 57% 29.92 in 10.0 mi SE 8.1 mph - N/A   Clear
9:15 PM 82.6 °F 84.9 °F 66.4 °F 58% 29.92 in 10.0 mi SE 9.2 mph - N/A   Clear
9:35 PM 81.5 °F 83.7 °F 66.2 °F 60% 29.92 in 10.0 mi SE 8.1 mph - N/A   Clear
9:55 PM 80.4 °F 82.6 °F 66.2 °F 62% 29.93 in 10.0 mi SE 8.1 mph - N/A   Clear
10:15 PM 79.3 °F - 65.8 °F 63% 29.94 in 10.0 mi SSE 6.9 mph - N/A   Clear
10:35 PM 79.7 °F - 65.7 °F 62% 29.94 in 10.0 mi SSE 6.9 mph - N/A   Clear
10:55 PM 77.4 °F - 66.2 °F 68% 29.95 in 10.0 mi SSE 5.8 mph - N/A   Clear
11:15 PM 77.0 °F - 65.8 °F 68% 29.95 in 10.0 mi SSE 5.8 mph - N/A   Clear
11:35 PM 75.7 °F - 65.7 °F 71% 29.95 in 10.0 mi SSE 6.9 mph - N/A   Clear
11:55 PM 77.4 °F - 64.6 °F 65% 29.95 in 10.0 mi SSE 6.9 mph - N/A   Clear